1st Responders/1st Detectors/Storm Spotters Weather Summary for Jackson County, KY

Forecast Maps


Reg. NEXRAD Animation


National Fire Danger: Day 1 & 2 Map

Current NWS Watch/Warnings

SPC Convective Day 1 Outlook


Day 2 Outlook

(Click images to enlarge|Page will refresh every 5 minutes)
UK Ag. Weather Center Desktop Severe Weather Service[HERE]
Jackson County, KY Hazardous Weather Outlook Webcast
(9 AM to 9 PM Mon-Fri)
[Fast]
[Dial-up]


UKAWC 1st Detectors/1st Responders Precision Weather Forecast For JACKSON County, Kentucky
(based on the NWS County Digital Forecast)

ISSUED AT 18:00 UTC ON SATURDAY JUL 20 2019
DAY SATURDAY
EDT 3HR 3P 4P 5P 6P 7P
MAX/MIN -- -- -- -- 90°
TEMP 88° 90° 90° 88° 86°
SKY COVER 49% 46% 43% 42% 40%
Clouds
DEW PT 74° 74° 72° 72° 72°
RH 63% 59% 55% 57% 61%
POP 12HR -- -- -- -- --
RAIN/SNOW (liq.equ) -- -- -- -- --
SNOWFALL -- -- -- -- --
WIND SPEED(MPH) 5 5 2 2 2
WIND Gust(MPH) 7 7 7 7 5
WIND DIR SW SW SW SW SW
DEW -- -- -- -- --
HeatIndex 96 99 99 96 93
Rain Showers Slight Chance Slight Chance Slight Chance -- --
Thunder Storm Slight Chance Slight Chance Slight Chance -- --
WIND CHILL -- -- -- -- --
SPRAY COND
DRY COND
LIVESTOCK HEATSTRESS 82.06 82.96 82.28 81.09 80.17



DAY SUNDAY MONDAY TUESDAY WEDNESDAY THURSDAY FRIDAY
EDT 6HR 8P 9P 10P 11P MIDN 1A 2A 3A 4A 5A 6A 7A 8A 9A 10A 11A NOON 1P 2P 3P 4P 5P 6P 7P 8P 9P 10P 11P MIDN 1A 2A 5A 8A 11A 2P 5P 8P 2A 8A 2P 8P 2A 8A 2P 8P 2A 8A 2P 8P 2A 8A 2P 8P
MAX/MIN -- -- -- -- -- -- -- -- -- -- -- -- 72° -- -- -- -- -- -- -- -- -- -- 86° -- -- -- -- -- -- -- -- 70° -- -- 81° -- -- 61° 76° -- -- 56° 77° -- -- 56° 81° -- -- 59° 83° --
TEMP 83° 81° 79° 76° 74° 74° 74° 74° 72° 72° 72° 72° 74° 76° 79° 81° 83° 85° 85° 85° 85° 85° 83° 83° 81° 79° 76° 74° 74° 72° 72° 72° 72° 76° 79° 81° 76° 67° 63° 74° 70° 58° 58° 76° 72° 58° 59° 79° 74° 61° 61° 81° 76°
SKY COVER 39% 31% 23% 15% 16% 17% 18% 30% 43% 55% 62% 69% 76% 75% 74% 73% 68% 63% 58% 62% 65% 69% 72% 74% 77% 78% 78% 79% 78% 77% 76% 80% 79% 86% 83% 82% 84% 82% 74% 48% 26% 22% 6% 11% 4% 5% 3% 14% 10% 9% 15% 24% 16%
Clouds
DEW PT 72° 72° 72° 72° 72° 72° 72° 72° 72° 72° 72° 72° 72° 72° 72° 72° 72° 72° 72° 72° 72° 72° 72° 72° 72° 72° 72° 72° 72° 72° 72° 70° 70° 72° 72° 70° 68° 65° 63° 59° 58° 56° 56° 56° 58° 56° 58° 58° 61° 58° 59° 61° 63°
RH 67% 72% 79% 87% 90% 93% 93% 93% 96% 96% 96% 96% 90% 87% 81% 76% 71% 67% 67% 65% 63% 62% 67% 69% 74% 81% 87% 93% 96% 96% 96% 96% 97% 84% 79% 71% 79% 96% 99% 61% 67% 93% 89% 49% 63% 89% 93% 50% 65% 90% 92% 48% 61%
POP 12HR 15% -- -- -- -- -- -- -- -- -- -- -- 27% -- -- -- -- -- -- -- -- -- -- -- 51% -- -- -- -- -- -- -- 56% -- -- -- 87% -- 63% -- 13% -- 5% -- 3% -- 1% -- 2% -- 1% -- 2%
RAIN/SNOW (liq.equ) 0.01in -- -- -- -- -- 0.00in -- -- -- -- -- 0.02in -- -- -- -- -- 0.10in -- -- -- -- -- 0.06in -- -- -- -- -- 0.05in -- 0.10in -- 0.43in -- 0.82in 0.56in 0.06in -- -- -- -- -- -- -- -- -- -- -- -- -- --
SNOWFALL 0in -- -- -- -- -- 0in -- -- -- -- -- 0in -- -- -- -- -- 0in -- -- -- -- -- 0in -- -- -- -- -- 0in -- 0in -- 0in -- 0in 0in 0in -- -- -- -- -- -- -- -- -- -- -- -- -- --
WIND SPEED(MPH) 1 1 1 1 1 1 1 1 1 1 1 2 2 2 2 5 5 6 6 6 6 6 6 6 5 2 1 1 1 2 2 2 6 7 7 7 6 2 5 7 6 1 1 6 2 0 0 5 1 0 0 2 2
WIND DIR SW SW SW SW SW SW SW SW SW SW SW SW SW SW SW SW SW SW SW SW SW SW SW SW SW SW SW SW SW SW SW SW SW SW W W NW N N NE NE NE NE NE N E E NE E E E E S
HeatIndex 89 86 79 76 74 74 74 74 72 72 72 72 74 76 79 85 88 91 91 93 92 92 89 88 87 79 76 74 74 72 72 72 72 76 84 85 76 67 63 74 70 58 58 76 72 58 59 79 74 61 61 82 76
Rain Showers -- -- -- -- -- -- -- -- -- Slight Chance Slight Chance Chance Chance Chance Chance Chance Chance Chance Chance Chance Chance Chance Chance Chance Chance Chance Chance Chance Chance Chance Chance Likely Likely Likely Definite Definite Likely Chance -- -- -- -- -- -- -- -- -- -- -- -- -- -- --
Thunder Storm -- -- -- -- -- -- -- -- -- Slight Chance Slight Chance Chance Chance Chance Chance Chance Chance Chance Chance Chance Chance Chance Chance Chance Chance Chance Slight Chance Slight Chance Slight Chance Slight Chance Slight Chance Slight Chance Slight Chance Slight Chance Chance Chance Chance -- -- -- -- -- -- -- -- -- -- -- -- -- -- -- --
WIND CHILL -- -- -- -- -- -- -- -- -- -- -- -- -- -- -- -- -- -- -- -- -- -- -- -- -- -- -- -- -- -- -- -- -- -- -- -- -- -- -- -- -- -- -- -- -- -- -- -- -- -- -- -- --
SPRAY COND
DRY COND
LIVESTOCK HEATSTRESS 78.61 77.58 76.67 74.77 73.16 73.41 73.41 73.41 71.71 71.71 71.71 71.71 73.16 74.77 76.89 78.07 79.14 80.24 80.24 79.96 79.67 79.52 78.61 78.87 77.83 76.89 74.77 73.41 73.67 71.71 71.71 71.71 71.78 74.49 76.67 77.46 74.01 66.82 62.98 70.74 67.97 58.03 58.05 71.18 69.31 58.05 58.99 73.44 71.07 60.88 60.90 74.65 72.31

Click on individual weather variable above in left-hand column (ie., TEMP, RH, QPF 12HR) to view state forecast maps






NWS 48 Hr. Forecast Maps,

Regional Hourly Observations For JACKSON County, Kentucky
Issued at 200 PM EDT SAT JUL 20 2019
SOUTHEAST KENTUCKY
  
CITY           SKY/WX    TMP DP  RH WIND       PRES   REMARKS
JACKSON        PTSUNNY   88  73  61 CALM      30.05F HX  95           
LONDON         FAIR      88  75  65 CALM      30.03F HX  97           
SOMERSET       FAIR      86  72  62 S7        30.03F HX  92           
MIDDLESBORO    FAIR      91  73  55 CALM      30.04F HX  98           
MONTICELLO     FAIR      89  77  67 W14       30.05F HX 101           


Current NOWCAST not available:
Nowcasts are not issued routinely during fair weather. Only when
precipitation or other significant weather is occuring in this county will these
forecasts be issued. Currently, there is no short term forecast in effect.


Fire Weather Forecast For JACKSON County, KY
Provided by the National Weather Service:

Issued at: Sat Jul 20 14:05:01 EDT 2019

543 AM EDT Sat Jul 20 2019

                      Today        Tonight      Sun          

Cloud Cover           PCldy        PCldy        PCldy        
Chance precip (%)     20           30           50           
Precip type           tstms        tstms        tstms        
Temp (24H TREND)      88-91 (+2)   67-74 (+3)   82-87        
Rh % (24H TREND)      53-58 (+2)   90-100 (+1)  62-69        
20ftwnd-AM(mph)       Lgt/Var                   SW 2-6       
20ftwnd-PM(mph)       Lgt/Var      Lgt/Var      SW 3-7       
Precip duration       1            1            1            
Precip begin                                                 
Precip end                                                   
Precip amount         0.03         0.03         0.21         
LAL                   3            3            4            
Haines Index (MID)    3                         3            
Mixing hgt(ft-AGL)    5900                      3000         
Transport wnd (mph)   SW  5                     W  9         
Vent rate (kt-ft)     26351                     23967        
ADI Early             24 Fair      6 Very Poor  19 Gen Poor  
ADI Late              43 Gen Good  4 Very Poor  23 Fair      
Max LVORI Early       7            7            7            
Max LVORI Late        3            8            3            

REMARKS...RANGES OF MIN T EXCEEDING 8 DEGREES & RANGES OF MAX RH        
EXCEEDING 10% INDICATE THE LIKELIHOOD OF THERMAL BELTS. ADI IS        
ATMOSPHERIC DISPERSION INDEX BY LAVDAS. DISPERSION INDEX IS        
MAGNITUDE OF VENT RATE DIVIDED BY 1000.


SPC's Fire Weather Web Tool (Excellent!), SPC's Fire Weather Outlooks, NWS Fire Weather WEB, Fire Danger Class Map,
Keetch-Byram Drought Index, ROMAN Web, Haines Index ,
WFAS's 10-hr Dead Fuel Moist., WFAS's 100-hr Dead Fuel Moist., Probablity of Ignition, Visual blackness Map, Palmer Drought Index, HPC's Rainfall Forecast Maps


Hazardous Weather Outlook For JACKSON County, Kentucky
352 AM EDT Sat Jul 20 2019

   HEAT ADVISORY IN EFFECT UNTIL 8 PM EDT THIS EVENING  

This hazardous weather outlook is for portions of eastern Kentucky.

 DAY ONE  Today and Tonight.

Hot temperatures and high humidity will combine to yield heat 
indices of between 100 and 105 degrees in most areas through early
evening. See the latest SDFNPWJKL for more details concerning the
Heat Advisory in effect for this area.

Thunderstorms are possible along the TN and VA border this
afternoon and over all of eastern Kentucky late tonight.

 DAYS TWO THROUGH SEVEN  Sunday through Friday.

Thunderstorms will be possible at times for Sunday through 
Monday night. Some storms on Monday could be strong as a cold
front will push through the region. The main threats will be wind
gusts and heavy rainfall that may lead to isolated flooding.

 SPOTTER INFORMATION STATEMENT  

Spotter activation is not anticipated at this time.

Latest JACKSON County, Kentucky Watches, Warnings and Advisories.
Additional Drought Info.: UKAWC Drought Page, Kentucky Drought Watch


7-Day Forecast For JACKSON County, KY


HEAT ADVISORY IN EFFECT UNTIL 8 PM EDT THIS EVENING

TODAY
Mostly sunny early then becoming partly cloudy. Highs in the lower 90s. Light winds.

TONIGHT
Partly cloudy. A 30 percent chance of showers and thunderstorms near dawn. Lows in the lower 70s. Light winds.

SUNDAY
Partly sunny with a 50 percent chance of showers and thunderstorms. Highs in the upper 80s. Light winds.

SUNDAY NIGHT
Mostly cloudy. A chance of showers and thunderstorms in the evening, then showers likely and a slight chance of thunderstorms late. Lows in the lower 70s. Light winds. Chance of rain 60 percent.

MONDAY
Showers and a chance of thunderstorms. Highs in the lower 80s. Light winds. Chance of rain 90 percent.

MONDAY NIGHT
Mostly cloudy with showers likely and a chance of thunderstorms. Lows in the lower 60s. Chance of rain 60 percent.

TUESDAY
Mostly sunny. Highs in the mid 70s.

TUESDAY NIGHT
Mostly clear. Lows in the mid 50s.

WEDNESDAY
Sunny. Highs in the upper 70s.

WEDNESDAY NIGHT
Clear. Lows in the upper 50s.

THURSDAY
Sunny. Highs in the lower 80s.

THURSDAY NIGHT
Mostly clear. Lows around 60.

FRIDAY
Sunny. Highs in the mid 80s.

Ag Weather Center, Department of Biosystems & Agricultural Engineering, University of Kentucky